TimeEST,TemperatureF,Dew PointF,Humidity,Sea Level PressureIn,VisibilityMPH,Wind Direction,Wind SpeedMPH,Gust SpeedMPH,PrecipitationIn,Events,Conditions,WindDirDegrees,DateUTC
12:54 AM,18.0,12.0,78,29.78,0.8,North,23.0,33.4,0.00,Snow,Light Snow,350,2014-01-22 05:54:00
1:02 AM,17.6,12.2,79,29.76,1.0,NNW,16.1,29.9,0.00,Snow,Light Snow,340,2014-01-22 06:02:00
1:54 AM,17.1,10.9,77,29.77,1.0,NNW,18.4,27.6,0.00,Snow,Light Snow,340,2014-01-22 06:54:00
2:27 AM,15.8,10.4,79,29.78,1.5,NNW,21.9,27.6,0.00,Snow,Light Snow,330,2014-01-22 07:27:00
2:54 AM,15.1,10.0,80,29.80,1.2,NNW,20.7,31.1,0.00,Snow,Light Snow,330,2014-01-22 07:54:00
3:38 AM,15.8,6.8,68,29.80,2.5,NNW,20.7,27.6,0.00,Snow,Light Snow,330,2014-01-22 08:38:00
3:45 AM,15.8,5.0,62,29.80,3.0,NNW,25.3,33.4,0.00,Snow,Light Snow,330,2014-01-22 08:45:00
3:54 AM,15.1,5.0,64,29.81,2.5,NNW,20.7,33.4,0.00,Snow,Light Snow,330,2014-01-22 08:54:00
4:12 AM,15.8,3.2,58,29.80,4.0,NNW,21.9,32.2,0.00,Snow,Light Snow,330,2014-01-22 09:12:00
4:54 AM,12.9,-0.0,56,29.83,9.0,NW,20.7,29.9,0.00,,Partly Cloudy,310,2014-01-22 09:54:00
5:20 AM,10.4,-0.4,62,29.83,3.0,NNW,23.0,32.2,N/A,Snow,Blowing Snow,330,2014-01-22 10:20:00
5:54 AM,10.0,-2.0,58,29.85,9.0,NNW,16.1,28.8,N/A,,Clear,330,2014-01-22 10:54:00
6:54 AM,8.1,-2.9,61,29.86,5.0,NW,19.6,31.1,N/A,Snow,Blowing Snow,320,2014-01-22 11:54:00
7:54 AM,8.1,-4.0,58,29.88,8.0,NNW,17.3,27.6,N/A,,Clear,330,2014-01-22 12:54:00
8:54 AM,9.0,-5.1,53,29.92,10.0,NNW,16.1,27.6,N/A,,Clear,330,2014-01-22 13:54:00
9:54 AM,10.0,-4.0,53,29.94,10.0,NNW,19.6,26.5,N/A,,Clear,330,2014-01-22 14:54:00
10:54 AM,10.9,-2.9,54,29.96,10.0,NW,20.7,27.6,N/A,,Clear,320,2014-01-22 15:54:00
11:54 AM,12.9,-2.0,51,29.95,10.0,NNW,18.4,-,N/A,,Clear,330,2014-01-22 16:54:00
12:54 PM,15.1,-0.9,49,29.94,10.0,NW,13.8,21.9,N/A,,Clear,310,2014-01-22 17:54:00
1:54 PM,16.0,-0.9,47,29.94,10.0,NW,18.4,26.5,N/A,,Clear,310,2014-01-22 18:54:00
2:54 PM,17.1,-0.0,47,29.95,10.0,WNW,12.7,-,N/A,,Clear,300,2014-01-22 19:54:00
3:54 PM,17.1,-0.0,47,29.97,10.0,WNW,9.2,20.7,N/A,,Clear,300,2014-01-22 20:54:00
4:54 PM,16.0,-2.0,45,30.00,10.0,NW,13.8,-,N/A,,Clear,310,2014-01-22 21:54:00
5:54 PM,15.1,-2.0,47,30.03,10.0,WNW,6.9,-,N/A,,Clear,300,2014-01-22 22:54:00
6:54 PM,12.9,-0.9,54,30.06,10.0,WNW,3.5,-,N/A,,Clear,300,2014-01-22 23:54:00
7:54 PM,12.0,-2.0,53,30.06,10.0,WNW,3.5,-,N/A,,Clear,290,2014-01-23 00:54:00
8:54 PM,12.0,-0.9,56,30.08,10.0,West,3.5,-,N/A,,Clear,270,2014-01-23 01:54:00
9:54 PM,5.0,-0.9,76,30.10,10.0,Calm,Calm,-,N/A,,Clear,0,2014-01-23 02:54:00
10:54 PM,1.9,-2.9,80,30.11,10.0,Calm,Calm,-,N/A,,Mostly Cloudy,0,2014-01-23 03:54:00
11:54 PM,8.1,1.0,73,30.11,10.0,Calm,Calm,-,N/A,,Overcast,0,2014-01-23 04:54:00